{"data":{"norad_id":68601,"epoch":"2026-09-19T23:38:45.721824Z","epoch_age_seconds":110869,"freshness":"FRESH","line1":"1 68601U 26072AE  26262.98525141 -.00000504  00000+0 -37133-4 0  9992","line2":"2 68601  51.9021 121.4732 0000794 105.9380 254.1670 14.79929962 25366","mean_motion":14.79929962,"eccentricity":7.94e-5,"inclination_deg":51.9021,"raan_deg":121.4732,"arg_perigee_deg":105.938,"mean_anomaly_deg":254.167,"bstar":-3.7133e-5,"rev_number":2536,"period_min":97.301901912572,"perigee_km":628.98880943636,"apogee_km":630.1016293728,"semimajor_km":7007.6822194046,"source":"CELESTRAK","updated_at":"2026-09-20T09:00:24.355634Z"}}